Wind_Gust
4 3 3 1 3 2 5 5 6 8 4 7 8 9 19 4 13 11 13 12 10 17 14 16 19 19 22 23 24 17 14 6 4 12 11 13 14 18 20 23 20 18 17 12 10 10 12 17 20 22 23 25 24 23 22 23 23 21 21 20 19 19 18 17 17 18 18 17 17 17 18 18 18 18 18 18 18 17 16 17 18 18 18 18 18 19 19 19 19 18 17 17 17 17 16 16 16
3 4 4 2 2 3 5 5 8 3 5 6 22 3 10 7 7 13 14 9 8 23 17 21 27 29 28 25 20 22 23 15 11 12 14 17 19 17 19 23 23 22 16 13 10 9 9 15 19 22 24 25 24 24 23 23 23 23 22 20 20 19 19 17 17 17 17 17 17 17 17 17 18 18 17 17 16 17 15 16 18 18 19 16 16 18 18 17 17 17 17 17 16 16 15 14 14
4 7 8 6 4 4 3 4 6 4 5 6 19 11 7 12 11 13 10 5 17 16 15 16 17 15 18 12 24 15 8 10 20 19 19 16 23 12 15 19 20 20 18 14 12 10 10 13 19 22 25 25 24 24 23 22 22 22 22 21 20 19 18 17 16 16 17 17 17 17 18 17 17 17 17 17 16 16 15 14 16 16 18 16 16 16 16 16 17 16 16 16 16 15 14 13 13
3 1 3 4 5 4 6 5 7 10 6 15 17 10 7 7 10 12 8 8 16 12 10 10 18 15 22 28 23 19 16 12 11 19 26 17 16 19 17 17 17 18 17 14 12 12 11 15 19 22 25 24 24 24 23 23 23 23 21 21 20 20 19 17 17 16 16 17 17 17 17 17 17 17 17 16 15 14 14 16 16 15 15 14 14 15 16 15 15 16 16 15 15 14 14 13 12
3 1 3 4 8 5 5 7 6 10 11 14 10 10 8 9 7 8 4 6 4 18 19 18 23 11 20 15 5 11 10 13 13 9 22 15 19 20 17 16 17 18 16 14 13 12 13 17 19 20 23 25 24 24 23 23 23 22 21 20 20 20 19 18 18 17 17 16 17 17 17 17 17 17 17 17 16 15 14 14 14 13 12 12 12 10 12 13 14 15 15 16 16 17 16 11 10
2 4 1 5 6 5 5 4 6 6 19 7 9 7 11 17 10 7 3 4 9 13 16 11 16 9 18 12 8 12 13 13 14 13 20 18 21 22 23 23 19 19 16 13 12 11 13 16 18 20 22 24 23 23 24 23 23 22 21 22 21 21 20 19 19 18 18 17 16 16 16 16 17 17 16 17 16 16 16 15 14 14 12 12 11 12 14 13 15 15 14 14 14 15 16 12 9
6 7 5 2 7 5 9 5 8 8 25 10 14 13 18 17 19 14 10 7 16 16 20 25 26 21 24 13 14 12 3 13 16 17 18 23 23 22 24 22 22 21 16 14 11 11 13 16 18 19 21 22 23 23 23 23 23 22 21 20 19 20 20 19 18 18 18 17 17 16 16 16 16 16 16 16 16 15 15 13 14 14 12 10 11 11 13 14 15 15 14 14 14 14 14 10 6
1 7 3 7 5 3 3 4 10 8 18 12 9 13 16 19 16 8 8 4 9 11 10 15 12 21 4 5 15 11 14 14 24 27 28 26 24 24 23 21 23 20 19 13 13 9 18 15 17 18 19 20 21 21 22 22 22 21 21 20 20 19 19 18 18 17 16 17 17 17 16 16 16 15 16 15 16 15 15 14 14 13 12 14 15 15 16 16 17 16 16 15 14 13 13 11 5
4 4 4 8 3 4 3 8 14 9 18 14 17 16 17 19 11 11 4 6 15 15 14 14 17 21 8 17 14 7 17 23 25 25 26 23 22 18 19 18 19 20 20 16 11 8 9 15 17 18 18 18 21 22 22 22 22 21 21 20 19 17 17 17 18 17 16 15 15 16 16 15 15 14 14 15 15 15 15 14 13 14 14 15 15 15 16 17 17 16 15 14 13 12 12 11 6
2 5 3 7 7 3 4 14 5 13 9 13 15 22 22 17 17 21 7 10 12 13 5 4 8 19 16 20 17 10 12 20 25 25 24 25 24 23 20 16 17 21 22 16 16 8 9 19 18 18 17 19 19 20 20 20 20 20 20 19 17 17 16 16 15 15 15 15 15 15 15 14 14 13 13 14 14 14 14 13 13 14 13 14 14 14 14 15 15 14 13 13 12 10 9 9 6
6 4 4 3 2 5 9 14 12 15 16 13 16 23 26 19 17 4 5 10 12 15 14 22 22 25 18 11 10 6 11 17 23 21 20 23 23 21 19 17 17 19 21 18 17 12 8 14 21 17 17 18 18 18 18 18 18 18 17 17 17 17 17 16 15 16 15 15 16 15 14 15 14 14 14 13 13 12 13 13 12 13 13 13 14 14 14 13 13 12 12 11 10 8 7 5 4
4 3 4 4 7 8 9 8 11 14 15 14 19 16 7 10 5 4 9 13 9 18 16 7 21 27 16 14 9 12 16 18 19 18 20 20 19 15 20 18 20 20 19 17 19 19 12 11 14 20 19 18 18 18 18 18 17 17 17 17 16 16 15 15 15 15 15 16 15 14 13 13 14 14 13 13 12 12 12 12 12 12 12 13 15 14 13 12 12 12 11 10 9 8 6 6 4
5 2 2 4 7 2 9 10 12 11 13 16 9 15 8 10 5 5 7 10 10 8 4 10 29 10 14 13 9 10 15 9 14 19 18 20 19 16 15 19 19 20 19 17 18 15 13 10 13 13 17 22 18 17 18 18 17 17 16 16 15 16 16 15 16 15 15 15 15 14 13 12 13 13 13 13 12 12 11 12 12 11 11 14 15 14 13 13 13 12 11 9 9 7 5 5 5
10 10 7 7 3 5 9 11 6 7 14 13 11 9 14 5 3 6 12 11 6 6 4 21 18 24 16 15 10 11 12 9 17 19 20 19 16 16 19 18 20 23 22 21 21 16 13 11 13 14 16 15 15 16 16 17 16 16 15 15 15 14 14 14 13 13 13 14 15 15 14 13 14 13 12 11 10 11 9 10 11 12 12 14 15 14 14 13 13 12 11 9 8 6 4 2 2
10 4 3 5 10 6 8 12 6 8 16 9 8 9 9 9 5 7 10 13 7 10 16 5 21 17 19 21 13 16 16 14 17 20 22 18 16 16 16 15 15 17 17 18 16 15 13 12 12 12 12 12 12 11 11 16 16 16 14 14 14 13 13 13 13 12 13 13 14 14 14 14 14 14 13 11 10 10 11 9 10 11 12 14 15 14 14 14 12 11 10 9 8 5 3 2 3
11 5 5 4 9 5 16 8 4 2 16 3 10 5 5 6 6 4 8 11 16 5 7 9 7 8 18 17 24 23 20 18 18 23 24 21 17 14 11 10 12 15 17 16 12 10 13 13 12 13 12 11 10 10 12 12 15 17 14 13 14 14 14 14 13 13 14 14 16 15 14 12 11 10 14 11 11 9 8 6 10 11 12 13 14 15 14 13 12 11 10 9 7 5 3 3 5
3 5 6 8 15 6 12 7 3 7 13 9 17 6 8 8 6 4 5 10 13 5 10 5 2 9 28 11 27 28 22 21 20 22 22 19 18 15 14 13 13 12 12 8 10 11 12 13 13 12 11 11 10 10 10 11 15 17 14 15 15 15 13 13 13 14 13 13 13 13 11 8 6 6 8 6 9 6 6 8 10 11 12 12 13 13 13 12 12 11 9 7 7 6 4 3 6
4 7 8 9 13 11 12 13 5 8 16 11 14 4 10 4 7 7 9 18 16 15 16 11 21 19 18 25 28 27 24 24 22 24 20 19 16 16 16 13 17 17 10 9 9 11 12 11 12 12 12 11 10 10 9 9 11 12 9 10 10 12 11 12 10 8 11 7 13 11 8 7 6 6 5 9 5 6 6 8 9 10 11 12 10 9 12 10 10 9 8 7 6 4 3 2 6
8 6 8 17 11 18 3 5 5 10 15 17 6 12 8 3 5 2 9 6 11 18 13 14 21 20 22 26 27 25 23 21 21 23 23 20 18 19 18 16 14 17 13 11 10 12 11 11 11 12 12 11 10 8 9 8 8 8 7 8 9 9 11 11 7 9 5 7 8 8 7 6 6 5 4 7 6 7 6 10 9 9 9 10 10 10 10 9 7 7 7 7 4 3 1 1 4
8 9 11 15 8 9 8 4 8 7 7 7 9 5 6 2 7 2 5 8 13 19 16 8 21 20 22 22 22 22 20 20 21 22 22 21 20 21 19 18 16 12 15 14 14 11 11 10 10 11 12 12 11 9 8 7 8 7 8 8 8 8 6 7 5 7 6 7 8 8 7 6 5 4 9 11 10 6 4 8 10 8 8 9 10 7 9 9 9 7 6 6 5 2 1 2 3
8 8 12 12 9 12 10 5 7 10 10 7 2 7 10 13 8 3 3 11 7 9 17 21 20 24 24 22 22 18 20 18 17 20 21 19 14 12 17 17 15 12 11 12 12 12 10 10 10 9 11 12 11 10 9 8 7 7 6 8 7 6 6 6 7 6 5 6 7 8 7 6 6 4 4 4 5 5 5 4 4 4 4 5 7 5 5 5 5 4 3 3 2 3 3 4 2
4 11 14 15 11 9 15 12 10 10 8 8 3 5 5 10 5 8 2 6 11 15 10 20 27 30 31 26 20 17 17 17 18 19 21 21 19 14 10 12 10 8 8 11 11 12 11 11 11 11 11 11 10 10 10 10 10 7 7 6 6 5 7 6 6 6 6 6 6 6 7 7 5 5 6 5 5 7 5 5 6 5 5 5 6 7 4 4 4 5 4 4 5 3 4 4 3
16 13 8 13 15 13 8 12 7 3 8 3 5 3 4 4 8 6 5 7 8 6 17 21 22 23 23 23 22 18 15 14 14 17 18 19 17 14 13 13 12 11 7 8 9 11 12 11 11 12 11 11 9 9 8 8 8 7 8 8 9 7 7 8 7 5 4 5 5 5 7 7 6 5 6 5 6 7 6 6 6 6 5 6 6 7 5 4 6 5 6 6 5 4 5 4 4
12 22 7 11 11 17 18 11 7 7 7 6 5 1 2 3 7 6 8 4 5 21 23 24 22 22 23 23 15 18 16 13 10 8 11 18 21 18 16 15 11 6 7 7 7 9 12 14 11 12 10 10 9 10 9 9 7 8 10 11 7 8 8 7 7 6 4 6 5 4 6 7 8 6 6 6 5 7 7 6 6 5 6 6 6 7 6 6 6 4 4 4 5 5 5 5 5
10 16 11 15 10 12 13 10 7 9 9 11 5 5 8 4 4 7 6 11 17 22 24 24 23 23 22 21 20 18 18 16 16 11 7 6 8 11 11 12 9 6 7 6 8 9 12 12 13 13 11 12 10 10 11 9 9 9 8 8 9 9 6 7 9 8 5 5 6 6 6 8 7 7 7 6 6 7 7 7 7 6 5 6 7 6 8 7 7 6 5 5 4 4 3 5 6
11 19 16 15 15 11 12 7 8 9 10 8 8 5 6 9 7 9 12 11 17 21 23 24 24 24 22 21 19 19 18 17 15 15 8 8 11 14 10 10 9 8 8 7 8 8 10 14 15 15 16 15 14 12 10 11 10 10 9 9 9 8 6 6 8 9 8 6 6 5 4 7 8 8 7 4 9 8 7 7 6 6 7 6 6 7 6 7 7 4 4 5 4 4 4 7 5
9 9 7 13 17 13 9 9 7 8 7 2 6 4 4 5 8 6 6 19 21 22 21 20 23 21 19 18 16 16 20 17 19 19 13 10 9 13 10 7 12 9 7 11 9 15 16 16 15 15 15 13 14 14 12 12 10 9 9 9 8 8 5 7 8 9 8 8 7 5 4 5 6 5 5 6 7 8 7 7 7 6 7 7 6 6 5 6 6 7 6 6 6 3 3 3 5
9 10 8 8 8 8 6 4 8 4 10 3 6 8 6 5 4 20 16 17 24 26 21 21 21 19 19 17 17 14 16 15 17 17 18 18 18 18 11 14 13 11 13 8 13 16 21 19 14 15 15 15 15 14 12 11 10 10 10 9 9 7 7 7 8 9 10 8 8 6 5 5 6 5 6 7 7 8 7 8 7 8 8 6 5 5 6 6 6 6 5 4 6 2 3 2 3
12 10 9 7 8 13 5 7 6 2 9 4 5 3 8 5 7 20 22 17 20 25 21 21 20 18 17 15 14 13 15 14 13 14 14 15 14 16 17 12 18 15 13 13 17 27 24 17 15 14 15 13 14 13 13 11 11 12 11 10 10 11 8 7 8 8 9 8 7 8 7 6 4 6 3 4 7 7 7 6 6 6 6 7 6 5 4 5 4 5 6 2 2 5 4 2 2
9 10 5 7 8 13 13 7 8 5 7 4 6 13 13 14 9 24 22 23 21 24 22 20 20 19 17 15 16 14 12 13 13 14 13 16 17 13 15 16 19 19 17 13 13 25 20 10 13 15 15 15 11 12 12 12 11 10 9 9 10 9 8 8 8 7 8 8 8 7 7 7 6 5 6 5 6 6 6 8 8 4 3 3 3 2 6 5 5 4 4 7 4 4 1 1 2
5 8 6 5 6 20 5 13 7 8 10 7 6 12 17 16 15 26 23 28 28 25 22 22 22 20 18 17 17 16 14 15 16 17 14 16 16 18 20 16 14 19 14 14 17 21 15 13 16 15 14 12 12 13 14 12 11 12 10 8 9 8 6 5 6 6 9 8 7 6 6 7 7 6 5 7 5 4 4 3 3 5 4 3 4 2 1 2 2 6 7 6 3 2 2 3 3
7 12 10 9 7 19 14 10 9 18 14 9 11 12 20 14 22 29 22 21 24 25 21 22 23 22 20 17 17 16 13 9 14 13 17 18 17 16 20 19 16 18 18 19 17 17 16 14 17 17 13 13 12 15 14 14 14 12 10 10 8 7 8 8 6 5 7 8 7 6 6 8 6 5 6 6 5 5 5 2 3 6 5 6 6 3 2 2 1 4 2 7 4 3 4 7 7
11 5 7 9 4 15 18 10 15 18 16 5 17 17 5 9 22 26 24 23 23 24 21 20 21 20 19 17 16 14 13 9 10 13 15 16 13 16 18 16 15 16 15 17 17 17 17 15 19 19 16 14 13 13 13 10 11 11 10 9 9 8 9 8 5 4 7 7 7 7 6 6 6 5 4 6 6 6 6 4 2 5 5 6 5 5 3 1 3 4 5 2 7 5 5 6 7
14 4 12 10 8 9 15 18 10 17 14 10 17 16 7 3 16 20 19 23 22 24 21 20 18 18 16 16 15 16 15 16 17 17 17 11 10 5 8 13 16 14 15 17 17 21 19 14 14 15 13 13 14 15 12 10 9 10 11 13 11 9 7 7 7 6 7 8 7 8 6 7 7 6 5 6 6 5 4 5 3 6 6 7 7 4 5 2 5 6 5 4 3 7 4 5 3
8 7 6 11 6 9 20 22 11 13 15 16 14 12 4 4 13 16 20 16 23 24 25 21 19 16 16 15 15 15 17 17 19 17 15 11 7 4 7 7 13 18 17 17 17 17 16 14 13 14 14 12 12 13 11 10 11 11 10 12 10 8 8 5 4 3 4 3 2 2 4 6 7 6 5 7 8 6 5 4 5 6 7 9 11 7 5 4 5 4 5 3 6 5 5 4 4
13 7 8 6 7 13 13 24 18 18 12 15 11 14 10 9 11 18 22 19 22 17 18 20 18 18 17 17 16 16 18 18 15 13 10 9 7 8 8 8 10 15 17 18 16 16 15 13 11 12 11 12 10 11 12 12 12 14 14 10 11 9 6 7 4 5 3 3 3 3 3 6 6 7 8 7 6 6 4 4 6 5 6 7 9 10 5 4 5 5 4 5 5 5 5 5 4
11 5 3 6 8 15 18 11 6 16 15 12 14 10 7 5 9 8 4 13 14 18 19 18 17 18 17 17 16 15 16 20 15 15 12 13 12 12 7 11 10 14 16 18 17 14 15 18 15 13 9 10 13 13 10 12 13 14 12 12 12 7 9 6 6 4 6 4 6 8 7 6 4 5 9 9 8 8 8 6 4 4 5 6 6 6 6 4 4 4 5 4 4 4 3 3 3
3 3 4 13 6 12 17 7 6 5 13 3 4 13 9 4 2 7 16 9 19 18 19 19 20 18 19 20 18 15 12 7 13 10 10 11 11 10 9 12 11 18 14 17 18 15 13 13 15 13 9 8 9 10 10 9 8 13 15 14 13 10 10 10 7 4 4 4 5 5 5 7 8 8 5 4 7 7 8 7 6 6 6 7 6 6 4 6 6 6 5 5 3 4 3 2 2
3 3 4 5 12 8 13 11 12 7 10 3 5 10 8 2 4 7 21 24 20 22 27 26 24 17 18 18 19 17 12 14 13 13 11 12 10 9 12 12 10 16 14 16 15 15 13 12 12 11 9 9 8 6 8 8 5 8 13 12 15 11 5 6 7 4 4 7 7 5 4 3 3 2 3 7 7 4 7 8 8 8 6 6 6 6 4 5 6 4 3 6 4 3 2 2 1
3 6 5 7 5 8 13 16 8 12 9 3 1 3 7 9 4 6 15 19 17 16 18 19 21 25 23 23 21 21 16 20 20 19 16 12 10 10 12 13 12 13 15 13 15 16 14 13 11 11 10 7 6 4 6 6 9 8 11 12 8 11 11 8 7 5 6 9 9 8 8 7 6 6 5 5 5 3 7 6 5 5 7 5 6 5 4 5 7 6 3 4 6 4 4 2 2
6 3 4 3 1 4 5 10 11 6 6 4 7 12 14 9 5 8 5 8 14 10 9 13 16 22 23 20 18 22 24 21 22 16 11 11 12 12 14 12 13 14 14 16 16 16 15 14 13 12 10 6 5 6 10 12 15 13 13 11 13 14 12 10 8 8 6 4 5 8 6 6 7 7 7 9 7 7 5 6 6 5 5 4 5 6 5 6 6 6 7 6 7 7 6 4 2
7 8 8 8 5 4 9 6 8 15 11 8 8 7 12 11 5 6 8 9 16 17 20 21 18 10 13 22 23 17 14 19 27 25 24 19 14 10 11 13 14 14 15 15 15 15 13 13 12 11 7 7 8 8 13 14 16 17 15 16 14 12 11 9 9 8 5 7 6 2 4 6 6 8 8 9 10 9 9 7 6 6 4 6 6 5 4 5 5 4 3 5 3 2 7 6 6
2 10 6 6 5 5 5 6 8 4 5 10 5 11 11 12 9 7 4 9 16 11 14 19 15 17 19 22 23 21 19 15 14 18 18 16 12 13 13 15 17 15 13 13 13 14 14 15 13 11 10 9 10 9 11 16 14 14 15 14 14 15 14 7 5 5 7 4 4 5 4 5 6 9 8 9 8 8 9 9 10 10 8 7 6 7 6 4 4 4 4 5 4 4 6 4 7
9 9 5 7 8 7 5 8 4 7 5 8 6 10 9 9 16 6 3 8 5 9 7 12 21 22 21 19 23 20 21 22 21 16 12 13 16 19 20 16 17 19 14 14 15 14 16 16 15 12 10 13 10 12 12 16 17 12 11 11 12 12 12 12 9 8 6 5 7 3 4 5 5 6 8 8 7 9 11 11 11 9 10 8 11 10 8 7 8 6 5 5 5 4 4 8 4
13 7 9 3 6 7 7 10 7 5 2 14 9 5 8 7 15 10 6 7 4 13 5 8 16 24 21 20 21 20 16 16 16 18 18 18 17 15 15 17 13 14 16 18 17 16 16 16 16 12 12 14 12 12 15 13 17 15 14 13 11 7 11 13 10 7 7 5 6 4 6 4 5 6 7 8 7 9 10 9 10 10 10 8 9 10 9 9 8 7 7 8 6 6 4 5 7
8 6 2 3 3 4 8 4 9 6 9 6 7 3 7 10 11 13 8 4 4 9 5 12 16 19 16 17 14 16 14 17 19 22 20 19 19 19 19 16 12 15 14 14 12 14 15 15 16 15 13 14 15 13 16 14 15 16 15 11 13 12 12 11 10 10 8 6 7 6 6 7 6 7 7 7 8 7 8 9 10 9 8 8 9 9 9 10 9 9 7 7 7 8 7 8 5
6 5 5 10 12 12 8 13 9 11 3 10 9 2 6 8 9 6 5 5 8 3 6 7 10 14 17 15 17 20 19 19 20 20 19 18 16 16 13 16 14 8 7 11 13 15 15 17 17 16 15 14 13 15 16 16 15 16 16 13 13 14 14 14 13 10 8 6 8 6 6 5 5 6 7 6 7 7 7 7 8 7 7 7 8 9 8 9 8 9 8 8 8 8 9 9 8
5 4 6 9 12 15 13 10 10 7 8 10 5 4 8 5 11 11 12 10 9 17 11 9 11 13 14 11 12 12 10 12 12 9 7 6 6 5 6 9 10 10 8 9 10 11 14 15 15 15 12 14 13 14 15 16 16 14 13 14 14 14 15 16 17 16 13 11 9 9 5 8 6 6 6 6 6 6 8 9 8 9 8 7 7 7 7 8 7 8 8 8 7 6 6 10 8
12 11 14 12 7 12 8 9 7 7 10 4 3 6 7 5 13 12 14 13 3 6 22 20 19 16 16 17 16 15 14 11 11 10 8 8 11 12 10 8 7 9 13 12 12 12 12 12 14 16 13 9 14 13 16 15 14 14 14 14 11 11 12 14 15 15 11 13 11 10 9 10 8 8 6 7 4 6 8 10 9 9 8 7 6 7 6 8 9 9 8 8 8 8 6 8 10
5 4 9 10 5 4 6 8 6 7 10 8 2 5 5 9 12 5 9 10 9 14 10 11 18 20 20 19 16 17 15 13 13 12 9 7 10 9 10 12 13 13 10 11 12 13 12 13 12 14 10 8 8 8 15 13 12 11 13 15 13 11 9 11 12 15 12 12 12 13 13 12 11 10 9 8 8 7 7 7 8 7 6 7 7 7 7 6 7 9 7 8 7 5 7 8 7
6 7 11 14 16 17 11 10 11 11 12 8 8 8 9 4 7 7 6 7 14 13 13 13 16 16 16 14 17 17 15 10 12 12 9 7 5 10 14 14 13 10 9 10 8 8 9 10 11 14 22 22 14 10 7 11 12 11 12 10 12 10 12 10 10 12 13 13 11 12 11 12 13 10 11 9 6 8 8 7 6 7 7 8 8 8 9 8 7 7 7 7 6 6 7 8 7
4 4 13 11 13 15 12 16 13 8 5 6 6 7 9 9 6 3 3 11 15 18 18 18 16 15 16 17 16 14 13 12 11 11 10 9 7 7 8 13 11 11 9 7 6 6 8 16 26 24 21 18 19 15 14 13 13 12 12 12 10 10 9 11 8 7 9 11 12 12 12 12 13 13 10 10 8 10 8 8 7 7 6 7 8 9 8 8 7 8 7 7 5 4 8 7 5
9 7 5 10 14 17 8 4 2 9 11 10 6 2 4 12 11 4 7 14 13 14 16 20 16 13 16 16 13 11 11 11 9 10 10 8 9 10 9 6 10 11 12 12 11 10 13 15 17 18 14 13 16 14 15 14 15 14 12 11 10 9 11 11 14 10 10 10 11 11 12 11 11 12 12 9 10 8 10 9 8 7 6 6 6 7 8 7 7 7 7 6 6 3 7 6 6
10 6 12 5 8 12 14 11 4 5 9 13 2 7 3 7 12 12 10 7 10 13 15 18 18 15 17 13 13 14 14 13 11 11 10 9 8 9 9 10 8 13 13 13 13 13 13 14 15 14 14 14 12 16 16 17 16 16 14 15 13 13 12 12 12 14 11 11 8 10 8 8 10 12 12 10 10 9 8 8 8 6 5 5 6 6 6 6 7 7 6 6 6 6 7 5 5
9 11 5 12 8 7 9 14 4 5 7 8 5 4 4 2 10 10 9 6 8 6 13 18 14 16 17 14 13 12 12 14 13 11 12 11 11 10 10 10 11 9 7 11 12 14 15 11 14 13 12 15 17 15 10 14 16 15 15 17 16 12 11 12 13 13 12 12 11 11 12 13 8 8 11 10 10 10 10 8 8 7 6 6 6 7 7 7 7 8 6 7 4 6 7 5 2
6 4 10 3 16 7 6 10 10 15 6 4 9 6 9 5 6 7 9 4 14 5 8 6 10 15 16 14 13 12 12 11 11 10 11 11 9 9 10 12 14 13 12 10 11 9 12 13 15 12 6 6 6 10 18 16 15 9 12 14 12 14 13 13 13 13 13 13 13 14 13 9 13 11 11 11 12 11 10 10 9 10 8 7 6 5 7 7 8 8 8 9 5 7 6 5 3
14 11 5 6 8 5 13 6 7 5 7 6 8 7 7 10 8 3 4 4 5 17 11 6 6 6 10 12 13 11 11 10 10 9 9 10 9 8 9 9 11 11 11 12 10 13 14 14 13 14 15 9 9 10 13 16 19 16 11 11 13 13 13 14 13 13 13 13 12 13 15 16 11 11 11 10 10 10 10 11 11 11 12 10 8 7 6 6 7 6 6 8 6 7 7 4 5
6 9 7 14 10 5 4 11 7 7 8 7 8 8 11 12 5 4 5 3 7 10 18 12 7 7 9 12 10 11 10 7 9 8 8 8 7 8 7 8 8 14 14 13 11 11 11 13 14 12 10 9 11 14 16 16 12 10 7 9 12 14 15 13 12 12 11 11 11 11 12 12 16 15 14 14 12 12 12 12 11 12 12 12 11 11 10 10 10 10 7 7 9 8 7 6 5
Wind_Speed
2 2 2 0 2 1 2 2 1 2 2 3 4 1 5 1 4 4 7 6 4 3 6 8 9 2 4 7 13 10 8 2 1 4 3 2 8 9 13 13 13 12 11 7 6 6 7 11 14 16 17 19 19 18 18 18 17 16 15 16 15 14 13 13 14 14 14 14 14 14 14 15 15 15 15 15 15 14 13 14 14 14 14 13 15 15 15 15 15 14 13 13 13 13 12 12 12
1 3 3 1 0 1 0 2 2 1 3 3 10 1 4 3 3 6 8 4 3 3 5 12 14 18 19 17 12 12 13 8 4 5 6 7 10 9 13 15 15 14 10 8 6 5 6 9 14 16 18 20 19 19 18 18 18 17 16 16 15 14 13 13 13 14 14 14 14 14 14 14 14 14 14 14 13 14 13 14 14 14 15 12 13 14 14 14 13 13 13 13 12 12 10 10 11
2 4 4 3 2 1 0 1 1 1 2 3 7 4 4 7 6 8 7 4 10 6 6 9 9 7 7 5 9 5 3 4 11 9 7 10 13 5 10 12 12 12 12 8 7 6 6 8 14 16 20 20 19 19 19 18 17 17 16 15 15 14 13 13 13 13 14 14 14 14 14 14 14 14 14 13 13 13 13 12 13 12 14 12 13 13 12 12 13 13 12 12 11 10 9 10 10
2 1 1 1 0 1 2 2 4 5 3 8 5 5 3 4 6 9 5 5 12 7 3 4 6 7 6 14 9 9 7 5 3 10 8 6 6 9 10 11 10 9 9 7 7 7 7 10 14 16 19 20 20 19 19 19 18 17 16 16 15 14 13 12 12 13 13 14 14 14 14 14 14 14 13 13 12 12 12 13 13 12 12 11 11 12 12 11 12 12 12 11 10 10 9 9 9
2 0 1 2 2 1 1 2 2 3 5 4 3 5 5 3 4 4 3 2 3 11 7 6 6 3 6 6 0 1 3 7 8 5 7 8 12 11 11 10 9 7 7 7 7 7 8 13 13 14 17 20 19 19 18 18 18 18 16 15 15 15 14 13 13 12 13 13 14 14 14 14 13 13 13 14 13 12 12 12 12 10 10 10 10 9 9 10 11 12 12 11 11 11 9 8 8
1 2 1 2 1 1 2 1 2 3 9 2 3 2 7 11 7 4 3 4 4 8 8 4 6 4 4 2 1 4 7 4 7 8 9 9 13 15 15 13 10 11 9 6 5 5 7 11 11 12 15 19 19 19 19 18 18 16 16 16 15 15 15 14 13 13 13 13 13 13 13 13 13 13 13 13 13 13 13 12 12 11 10 10 9 10 11 10 12 12 11 11 10 11 9 7 7
1 3 1 1 1 1 4 2 3 4 12 6 5 6 12 11 10 10 7 4 7 8 10 11 15 10 9 0 5 4 2 7 7 7 11 14 15 15 17 14 14 12 6 7 5 5 7 10 11 12 15 17 18 18 18 18 17 16 16 15 15 15 15 14 14 14 13 13 13 13 13 13 13 13 13 13 13 12 12 11 12 11 10 8 9 9 11 11 12 11 11 10 10 9 7 5 5
0 2 0 2 1 1 0 2 5 4 7 8 4 6 11 11 10 4 6 2 2 3 3 9 3 10 1 2 6 6 10 9 16 18 17 13 14 12 12 11 12 12 12 7 6 3 10 9 11 12 14 15 17 17 18 18 17 16 15 14 14 14 14 14 14 14 12 13 13 13 13 12 12 12 13 13 13 12 12 12 11 11 10 11 12 11 12 12 12 12 12 11 10 9 7 4 3
2 1 1 3 1 1 1 3 6 4 7 6 10 8 12 13 8 7 3 1 4 7 6 7 7 10 2 10 6 4 8 16 16 17 17 16 15 11 7 6 10 11 11 10 6 3 3 8 10 12 14 14 17 18 18 18 17 16 15 14 14 12 12 12 14 14 13 12 12 12 12 12 11 11 11 12 12 12 12 12 11 11 12 12 11 12 13 13 13 12 11 10 9 9 7 5 2
0 1 0 1 2 1 1 7 2 5 2 5 6 13 13 9 9 14 4 6 6 6 0 2 2 10 10 12 8 6 5 14 17 16 13 17 16 15 14 11 9 12 11 9 10 5 2 10 11 12 13 14 15 16 16 16 16 16 15 14 13 12 12 12 12 12 12 12 12 11 12 11 11 11 10 11 11 11 11 11 11 11 11 12 12 11 11 12 12 11 10 9 8 7 6 4 1
2 1 1 1 1 1 4 7 4 8 8 6 9 14 17 11 11 1 2 6 4 6 4 11 11 14 9 5 3 3 7 12 16 13 12 14 12 11 12 11 11 11 11 10 9 7 3 6 13 12 13 13 14 14 14 14 15 14 13 13 13 13 13 12 12 13 12 12 12 12 11 12 11 11 11 10 10 10 10 10 10 11 11 11 12 11 11 11 11 10 9 8 6 5 4 3 2
1 0 1 2 3 4 5 3 4 7 9 7 8 11 5 4 3 1 6 8 1 8 7 2 7 13 9 6 3 5 10 12 13 11 10 12 11 8 13 10 12 13 11 9 7 11 9 7 6 13 14 14 14 15 14 15 14 14 14 13 13 12 12 11 11 11 11 12 11 11 10 11 11 11 11 10 9 10 10 10 10 10 10 11 12 11 10 10 10 10 9 7 6 5 4 3 2
1 0 1 1 2 1 5 4 6 5 5 7 4 6 5 6 2 4 5 7 7 6 2 3 19 3 5 6 3 6 10 6 9 12 11 11 10 8 10 11 11 13 13 9 4 7 9 7 6 8 12 17 14 14 14 14 14 14 13 13 12 12 12 12 12 12 12 12 11 10 10 9 10 11 11 10 10 9 9 10 10 9 9 11 12 11 11 10 10 10 8 7 6 4 3 2 2
3 4 3 2 0 2 5 3 3 3 6 6 5 5 6 1 1 3 7 6 3 3 1 13 8 13 8 5 4 6 6 6 11 13 11 11 8 9 11 9 12 12 13 14 10 6 8 8 7 8 10 9 9 11 13 13 13 13 13 12 12 12 12 11 11 10 10 11 12 11 10 11 11 10 10 9 9 9 8 8 9 10 10 11 11 11 11 10 10 10 8 7 5 3 2 1 0
3 1 1 2 3 2 4 2 2 2 7 5 4 3 5 4 2 4 7 8 3 3 8 3 9 8 7 10 4 7 8 9 11 14 14 11 11 10 9 7 8 8 8 9 10 7 8 8 7 7 7 7 8 7 6 10 12 13 12 12 11 11 11 11 11 10 11 9 10 11 11 11 11 11 9 8 8 8 9 8 8 9 10 11 11 11 10 10 9 9 8 7 5 3 1 0 1
4 1 1 1 3 2 7 1 1 1 7 1 6 3 3 4 3 2 4 6 2 1 4 3 3 3 10 10 13 15 13 12 11 13 14 14 12 9 7 7 8 9 8 7 6 5 6 7 6 7 7 7 6 6 7 7 11 13 11 11 11 11 11 11 10 10 11 11 11 11 10 8 8 7 11 7 9 8 7 5 8 9 10 10 11 11 10 9 9 8 7 6 5 3 1 2 3
1 1 1 1 7 3 5 2 1 1 7 5 12 3 3 3 4 1 3 6 7 3 3 2 0 3 17 4 18 19 15 14 14 15 14 11 9 8 7 7 7 7 7 3 4 6 6 7 7 6 6 7 6 6 6 6 9 13 11 12 12 12 10 10 10 10 10 10 8 8 7 4 4 3 4 4 7 3 5 7 8 9 10 10 10 10 10 9 8 7 6 5 4 3 1 3 5
2 2 2 5 5 5 4 1 2 4 5 6 9 3 4 3 4 3 5 10 9 8 9 5 13 11 11 15 18 18 16 16 15 17 12 10 8 8 8 7 9 9 5 5 4 6 6 6 7 7 6 7 6 5 4 4 6 8 5 6 5 7 9 9 7 4 7 4 9 6 3 3 3 3 3 5 3 3 4 7 8 8 9 9 8 8 9 8 7 7 5 4 4 2 1 1 3
3 1 2 9 4 4 1 0 3 4 6 7 5 4 4 1 3 0 4 2 6 9 5 6 13 13 15 16 17 17 15 14 14 16 16 14 11 12 10 8 8 10 8 6 6 8 6 6 6 7 7 7 6 5 4 4 5 4 4 4 5 7 7 7 4 5 3 5 3 3 3 3 3 3 3 4 3 5 4 8 7 7 8 8 8 8 8 7 5 6 5 3 2 2 0 0 3
3 4 5 7 4 4 3 1 5 4 5 3 6 4 3 1 3 0 3 4 8 10 7 3 12 14 14 14 13 13 12 11 10 13 14 14 13 13 12 11 10 7 9 8 8 6 6 6 6 6 7 7 6 5 4 4 4 4 4 4 4 4 4 4 3 4 4 4 4 4 3 3 2 3 6 8 6 3 3 7 8 7 7 7 8 5 6 6 7 5 4 4 2 0 1 1 2
2 3 4 5 5 5 6 4 5 5 7 4 1 4 6 6 4 1 2 7 1 4 10 14 13 17 17 15 15 11 11 11 10 10 12 11 8 7 10 10 8 6 5 6 7 7 6 6 6 6 7 6 6 5 5 4 4 4 4 4 4 3 4 4 4 3 3 3 3 4 3 3 2 1 2 2 3 3 3 2 3 3 2 3 5 3 4 3 3 3 2 1 2 1 2 2 1
0 5 6 8 6 3 9 8 7 6 6 6 1 1 2 4 2 5 1 4 6 7 7 11 18 20 21 18 13 10 10 10 10 9 10 11 11 9 7 7 6 6 4 6 6 7 7 7 7 6 7 6 6 5 5 5 6 4 4 4 4 3 4 4 4 3 4 3 3 3 4 4 2 2 2 2 3 4 3 4 4 3 3 3 4 5 3 3 2 3 3 2 2 2 3 2 2
4 5 5 7 8 6 3 4 3 3 3 2 2 1 1 3 4 2 1 3 4 1 9 13 15 15 16 15 14 12 11 10 8 8 9 8 8 7 8 8 8 6 5 4 5 6 7 7 7 7 6 6 6 5 4 4 5 4 4 4 4 4 4 5 4 3 3 3 3 3 4 4 3 2 3 3 4 4 4 4 4 3 3 4 4 5 3 3 4 3 3 3 2 3 3 3 3
5 7 5 8 7 10 12 7 5 5 6 4 2 1 0 1 3 1 3 3 2 12 12 14 14 15 16 15 10 13 11 9 7 3 1 7 10 9 8 9 7 4 4 3 4 5 7 7 7 8 6 6 5 6 6 5 4 5 5 5 4 4 5 4 3 3 2 4 3 3 3 4 4 4 4 3 3 3 4 5 4 4 4 4 4 4 4 4 4 2 3 3 3 3 3 3 3
5 6 7 9 6 7 8 7 5 5 6 7 3 3 6 3 1 2 2 7 12 14 13 14 15 16 15 15 14 12 12 11 11 7 3 3 3 5 6 6 6 3 4 3 5 4 4 6 7 7 6 7 5 6 6 5 5 5 5 4 5 5 4 4 4 3 3 3 3 3 3 4 4 4 4 3 4 3 4 4 4 4 3 4 4 4 5 5 4 4 3 3 2 3 2 3 3
4 11 9 7 7 8 8 4 5 5 4 5 5 4 4 6 6 3 5 8 12 13 13 15 16 17 15 14 13 13 11 11 9 9 4 2 2 6 5 6 5 5 4 2 3 3 1 5 7 8 8 7 7 6 5 5 5 6 5 5 5 4 4 4 5 4 3 4 4 3 3 4 5 5 5 3 5 4 4 4 4 4 4 3 4 4 4 5 5 3 3 3 3 2 2 5 3
3 5 4 6 12 9 6 6 4 4 2 1 3 3 2 2 5 1 2 10 13 14 14 12 15 15 13 12 11 11 13 12 13 12 8 5 5 7 5 5 7 6 2 6 6 6 5 7 8 8 8 8 7 7 6 6 6 5 5 5 5 4 3 4 5 4 4 3 4 3 3 3 4 3 3 4 4 4 4 4 4 4 4 3 3 4 3 3 3 4 4 3 3 2 2 2 2
6 5 6 6 6 5 4 2 5 1 3 2 4 5 4 1 2 10 8 7 15 17 13 13 13 13 12 12 11 9 10 9 9 11 13 11 9 9 8 7 8 7 8 6 7 8 10 10 8 9 9 8 9 8 6 6 5 6 6 5 5 4 4 4 5 5 5 4 3 3 3 3 3 3 3 3 4 4 4 4 4 4 3 3 3 2 3 3 3 3 3 3 3 1 2 2 1
6 5 4 5 5 5 3 1 2 0 3 3 0 1 3 1 2 13 13 9 11 16 13 13 12 11 11 10 9 8 9 8 7 8 9 9 7 5 11 7 9 7 4 8 6 5 9 10 9 9 9 8 8 8 7 6 6 6 6 6 6 5 5 4 4 5 5 5 4 4 3 3 3 3 2 3 4 3 3 3 3 3 3 3 2 2 2 2 2 2 3 1 1 3 1 0 0
5 4 1 4 4 6 9 3 5 1 2 1 3 5 8 7 2 16 14 12 12 15 13 12 11 11 10 10 10 9 8 8 8 6 6 7 8 7 9 8 7 7 6 4 5 7 7 5 6 7 8 9 7 7 6 6 5 5 5 5 5 5 5 5 4 4 5 5 5 4 4 4 4 4 3 4 4 3 3 2 2 2 2 2 2 1 2 2 3 2 3 3 3 2 1 0 0
1 4 2 1 4 7 2 4 2 4 4 4 3 5 9 4 11 16 16 17 17 15 13 11 12 12 11 10 10 10 9 9 11 11 8 9 9 8 11 9 8 8 7 7 10 12 10 8 7 7 7 7 7 7 7 6 5 6 5 5 4 3 3 4 4 3 3 4 4 4 3 4 4 3 3 4 3 2 3 2 1 1 1 2 2 1 1 1 1 3 4 4 1 1 2 1 2
2 5 4 5 3 8 8 3 4 8 2 6 5 5 10 3 14 14 13 13 15 15 12 13 12 11 10 9 9 9 8 6 9 10 12 12 11 8 12 12 7 7 11 11 11 11 10 9 10 10 8 8 8 9 8 7 8 6 5 5 5 4 3 3 3 3 3 3 3 3 3 3 3 3 4 3 4 4 3 2 2 3 3 3 3 2 1 1 0 3 1 4 2 2 2 4 4
5 1 3 4 2 6 9 6 7 11 5 2 10 7 2 4 15 17 16 16 15 15 13 12 13 12 11 10 9 7 7 4 6 9 10 11 8 8 10 9 5 8 9 11 11 11 11 10 12 12 11 10 8 8 8 7 6 6 5 5 5 5 5 4 3 3 4 3 3 3 3 2 3 3 3 3 4 4 3 2 2 3 3 3 2 2 2 0 1 3 2 1 3 3 3 4 3
5 1 3 4 5 5 5 9 5 7 7 4 6 6 3 1 11 12 13 15 15 16 14 13 11 10 9 9 9 8 9 9 10 10 11 8 6 2 5 8 6 8 8 11 12 13 12 9 9 9 8 8 9 9 8 7 6 6 6 5 4 4 4 4 3 2 4 4 4 3 3 3 3 3 3 3 4 3 2 2 2 4 3 4 2 2 2 1 3 3 3 2 2 3 2 3 1
2 3 3 6 3 6 12 6 5 8 8 10 6 7 3 3 9 10 12 11 14 16 15 13 12 11 10 9 9 10 10 10 12 11 10 7 4 3 4 3 6 11 10 11 11 11 10 8 8 8 9 8 8 8 6 6 5 4 6 7 5 4 3 3 1 0 0 0 1 1 1 1 1 1 1 2 3 2 2 2 3 3 4 4 3 4 2 1 3 2 3 2 3 3 3 2 2
6 4 4 3 4 5 5 12 11 10 7 7 7 7 7 5 8 10 14 12 10 10 11 12 11 11 11 10 10 9 11 12 9 8 7 6 5 5 4 4 5 8 10 11 11 10 10 8 7 7 7 7 6 7 7 7 6 6 6 6 6 5 4 3 2 0 0 0 1 1 2 3 2 2 2 2 1 1 1 2 3 2 3 4 5 6 3 1 3 3 2 3 4 3 2 3 3
6 2 2 3 2 7 8 7 2 10 7 7 9 7 2 2 3 2 0 3 6 10 11 10 10 10 10 11 10 9 9 11 8 8 6 7 7 7 4 6 5 7 10 12 11 9 10 10 10 9 6 6 8 7 6 7 7 6 5 5 6 4 5 4 3 1 1 1 1 2 2 2 3 3 5 4 3 4 3 2 3 3 3 3 3 4 4 2 2 2 2 2 2 2 2 2 1
1 1 3 7 1 4 8 4 3 1 5 1 2 8 5 3 1 6 11 5 10 10 10 12 13 11 11 13 12 10 8 1 5 5 6 6 6 7 5 7 6 10 8 11 12 10 8 9 10 8 6 5 6 6 6 5 4 6 7 6 6 5 6 6 4 2 3 3 3 2 3 3 3 3 2 3 5 5 5 3 3 4 4 4 3 3 3 4 4 4 4 3 2 2 1 0 1
1 0 1 3 5 4 7 4 6 3 5 1 1 7 5 2 2 5 13 15 9 12 17 17 15 11 9 11 12 11 7 7 6 6 6 5 7 6 7 7 6 9 9 10 10 10 8 8 8 7 6 5 4 4 5 4 3 4 7 4 8 3 1 2 3 1 2 4 4 3 2 1 0 1 2 1 2 2 4 5 4 4 3 4 4 4 3 3 3 4 3 4 2 2 1 0 0
1 2 1 2 2 3 5 8 3 6 3 0 0 1 2 6 2 3 9 12 9 10 11 11 13 14 13 14 13 12 10 12 13 12 11 6 7 7 7 8 7 7 8 8 9 10 8 7 7 7 6 4 4 3 4 4 6 5 6 6 4 5 5 3 4 3 4 6 6 4 4 3 3 3 2 1 1 2 3 3 3 3 4 3 3 4 3 3 3 3 2 2 3 2 1 0 1
2 1 1 1 0 1 2 5 6 4 3 2 3 6 3 5 2 3 1 3 8 5 6 6 7 11 12 9 8 14 16 14 13 10 8 7 8 7 9 7 7 8 9 9 9 9 7 8 8 7 6 4 3 4 6 8 9 8 7 6 7 7 6 6 5 4 4 3 3 5 4 4 4 4 3 4 3 3 2 2 2 2 3 2 3 3 3 3 3 3 3 3 4 3 3 2 1
3 5 5 4 2 3 6 3 3 7 4 4 4 2 4 3 2 3 2 3 6 7 11 11 9 5 4 9 11 8 7 10 17 16 16 12 9 7 7 8 9 8 8 8 8 8 8 8 7 6 4 4 5 5 8 8 9 10 8 8 7 7 6 5 6 4 3 4 3 0 3 4 4 5 5 5 5 4 5 3 4 3 3 3 3 3 3 3 3 3 2 3 2 2 4 4 2
1 4 4 3 3 3 3 5 2 1 1 3 2 4 2 6 4 3 1 6 11 6 9 11 9 9 8 10 10 12 12 8 6 10 10 9 8 8 8 9 9 9 7 7 7 8 8 9 8 6 6 5 6 5 7 8 8 8 9 8 8 8 8 3 2 3 4 2 2 4 3 3 4 5 5 5 5 4 5 4 5 5 4 3 3 4 3 3 3 2 2 3 2 3 4 3 4
2 4 3 4 5 5 4 5 2 2 1 4 4 3 2 2 7 2 0 4 3 4 5 5 10 12 12 10 11 12 12 12 11 7 6 7 9 12 13 10 9 10 9 8 8 7 10 10 9 7 6 7 6 6 7 10 10 7 7 7 7 7 7 6 5 4 3 3 4 2 3 3 3 3 4 4 4 5 6 6 6 5 6 5 5 5 4 3 5 3 3 3 3 2 3 5 3
5 3 4 1 4 5 5 6 3 0 0 5 4 2 2 1 6 2 2 1 3 9 2 6 11 14 13 12 12 10 10 10 11 11 11 11 10 10 10 10 8 9 10 10 10 9 10 10 10 8 8 8 7 8 9 8 10 9 8 7 6 3 6 7 5 4 4 3 4 3 4 3 4 4 4 4 4 5 5 5 5 6 6 5 5 6 5 6 5 4 4 5 4 4 3 3 3
4 4 1 1 1 3 5 2 5 2 4 2 2 1 1 4 6 7 3 2 2 3 3 7 11 13 11 11 9 8 8 9 11 13 11 10 10 10 12 9 7 9 8 9 8 9 9 9 10 10 9 9 9 8 9 9 10 9 9 7 8 6 6 5 5 6 5 4 4 3 4 4 4 5 4 4 4 4 5 4 5 5 5 5 5 5 5 6 5 5 4 4 4 5 4 5 3
1 3 2 5 7 5 2 7 4 5 1 4 3 1 2 1 4 2 1 1 2 2 0 1 6 9 11 9 11 10 10 10 11 11 10 10 9 8 7 10 9 5 4 7 8 10 9 10 11 11 10 8 8 9 10 10 9 10 10 9 9 9 7 7 7 6 5 4 4 4 4 4 4 4 3 3 4 4 4 4 5 4 4 4 5 5 5 5 5 5 5 5 5 5 5 5 5
1 1 2 4 5 8 7 5 5 2 1 4 3 2 5 1 3 6 6 5 3 11 5 5 7 8 9 7 7 7 7 8 7 6 4 4 4 3 3 6 6 7 5 5 6 7 9 9 10 11 8 10 8 8 7 9 9 9 9 9 9 8 8 7 9 9 7 6 5 5 4 5 4 3 3 3 3 4 5 5 4 5 4 4 5 4 4 5 4 5 5 5 4 4 4 5 5
6 5 7 5 1 4 2 3 1 1 3 1 2 2 3 1 4 7 8 8 2 1 11 12 10 8 7 8 9 8 7 7 7 6 5 5 7 7 7 5 5 6 8 7 8 7 7 8 10 11 9 7 8 7 6 8 8 9 9 9 8 6 5 6 7 8 7 7 6 6 5 6 4 5 3 4 2 4 4 6 6 6 5 4 4 4 4 5 5 5 5 5 5 5 4 5 6
4 2 4 5 1 1 1 2 1 3 4 4 0 3 0 3 5 2 5 4 2 6 5 5 11 11 10 9 8 8 7 8 7 6 5 5 6 6 7 8 8 7 6 7 7 7 6 7 7 9 6 5 6 3 2 4 6 7 9 10 9 7 6 4 5 7 6 7 6 7 7 7 7 6 5 4 4 4 4 5 5 4 4 4 4 5 4 4 5 5 5 5 4 3 4 5 4
2 4 6 7 7 5 3 3 4 4 5 3 5 3 2 2 2 4 4 5 7 8 7 7 8 8 8 8 10 10 9 7 7 7 5 4 3 7 8 8 7 6 5 5 4 4 2 2 3 8 10 12 9 6 1 3 6 8 8 7 7 6 7 6 5 5 7 7 5 5 4 5 6 6 6 4 3 4 4 4 4 5 4 5 5 5 5 4 4 4 4 4 4 4 5 5 5
1 2 6 5 5 7 3 6 6 3 0 2 1 2 4 3 2 2 0 8 10 11 12 12 10 7 8 10 10 8 7 7 6 7 6 4 4 3 5 7 7 6 5 4 4 4 5 8 10 9 8 8 8 9 10 8 7 7 8 9 7 6 6 7 5 3 4 6 7 6 6 5 6 6 5 4 4 5 5 4 4 4 4 5 5 5 5 5 5 5 4 4 4 2 5 5 4
2 3 1 4 6 9 4 2 0 5 5 3 1 0 2 5 2 3 3 9 9 8 10 13 10 8 8 9 8 6 7 6 5 5 4 4 5 5 3 5 6 6 6 6 6 6 8 8 10 12 9 7 8 9 8 7 10 9 8 8 7 5 6 7 8 6 6 6 6 6 6 5 4 4 5 4 5 4 5 5 4 4 4 4 4 4 4 4 4 4 4 4 4 2 4 4 4
4 2 6 1 4 5 6 4 1 2 3 3 0 3 1 3 3 4 6 4 1 8 8 11 13 11 11 7 7 8 7 6 6 5 4 4 5 6 5 4 5 8 7 7 7 6 6 7 9 9 9 9 7 7 11 9 9 10 9 9 8 8 7 7 8 8 7 6 5 5 4 4 5 6 5 5 5 5 4 5 5 4 3 4 4 4 4 4 4 4 4 4 3 4 4 3 3
3 2 2 4 1 1 4 5 0 1 1 2 1 0 1 1 3 5 4 1 2 3 2 8 9 8 9 8 8 7 7 8 8 7 7 7 7 6 6 6 5 5 5 7 7 7 5 5 6 8 8 8 8 4 2 3 0 8 8 10 9 8 7 7 7 8 7 7 7 7 7 8 5 5 5 5 6 5 6 5 5 4 4 4 4 4 5 5 5 5 4 5 3 4 4 3 1
1 2 3 0 6 3 2 2 3 6 2 2 2 2 2 2 2 2 3 3 8 3 4 3 2 6 9 8 7 8 8 6 7 7 7 7 6 6 6 7 8 6 5 5 7 4 5 4 4 4 4 3 3 6 8 5 5 1 7 8 8 8 7 7 7 8 7 8 8 9 8 6 8 6 6 6 6 6 6 6 5 6 5 4 4 4 4 4 4 5 5 6 4 4 4 4 2
7 5 1 1 2 2 5 1 2 1 2 2 2 2 1 4 4 2 2 1 3 10 7 4 3 2 3 6 8 7 6 6 6 6 6 6 6 5 6 6 7 6 5 5 6 8 7 5 6 7 8 6 6 7 8 10 12 10 6 7 8 7 8 8 8 8 9 9 8 8 9 9 6 6 6 6 6 7 7 7 7 6 7 6 5 5 4 4 4 4 4 5 4 5 4 3 4
2 3 2 8 6 2 2 3 2 2 3 1 3 2 4 6 1 1 1 0 5 7 12 8 5 4 4 4 6 7 6 5 5 5 5 5 5 5 5 5 5 7 6 5 3 5 7 8 8 7 5 4 4 5 4 1 0 0 3 4 4 5 8 8 8 8 7 7 7 7 8 7 10 9 8 8 8 7 7 8 6 5 5 6 6 7 6 6 6 6 5 4 6 5 5 4 4
Wind_Direction
351 307 260 162 106 96 62 14 114 301 70 245 268 228 252 254 253 312 283 294 67 330 71 59 68 61 96 116 114 90 26 124 215 139 214 184 123 114 124 126 129 125 122 125 126 131 128 131 131 129 129 127 125 124 125 127 126 124 120 117 116 115 111 109 108 107 106 105 105 105 106 106 105 105 104 106 107 109 109 108 106 109 104 108 108 108 106 104 102 100 98 98 97 100 100 103 106
10 358 349 161 123 96 300 133 107 24 42 5 252 128 254 281 324 282 277 247 126 158 117 89 83 89 100 113 124 94 46 38 66 106 79 99 104 113 130 134 136 130 124 122 119 118 125 131 131 132 131 130 126 127 129 128 129 126 122 119 117 115 112 110 111 110 109 109 109 108 108 108 108 106 105 105 106 106 106 112 116 114 114 115 111 109 108 106 102 99 101 101 100 99 100 105 109
26 13 6 44 34 96 206 53 78 139 105 250 269 203 295 320 281 253 240 116 125 144 104 86 83 72 116 141 50 45 153 74 91 87 101 120 110 120 123 125 122 118 120 118 122 123 128 135 137 137 134 131 130 129 129 129 128 127 125 122 121 119 117 116 115 113 112 112 111 111 111 111 110 110 109 110 112 114 114 111 102 109 112 115 110 107 105 105 105 104 101 99 99 104 106 108 110
76 85 104 67 27 19 74 29 98 129 160 227 315 276 233 239 256 238 239 208 165 144 109 48 49 321 92 63 95 74 100 117 75 124 124 133 118 123 114 109 107 107 110 121 127 129 133 141 141 139 135 133 131 130 130 130 128 127 127 126 125 123 120 118 117 117 115 114 114 113 113 114 114 113 114 114 115 117 113 110 119 121 115 114 110 109 109 108 107 105 103 103 103 107 112 107 104
65 325 120 80 107 356 94 187 159 115 226 203 197 266 283 276 274 274 268 281 36 111 108 131 89 13 53 92 111 105 148 121 124 84 93 77 105 105 93 77 73 84 105 110 113 120 130 137 136 134 134 132 131 129 129 128 128 130 129 129 128 126 123 122 122 121 119 118 117 116 115 114 114 115 112 112 113 112 112 117 121 119 108 105 101 92 94 97 106 108 107 102 105 111 110 107 104
56 64 341 90 111 203 43 20 305 220 236 130 225 238 290 290 295 284 282 52 110 106 110 80 127 171 58 5 18 98 139 125 110 62 95 103 96 88 78 56 41 29 11 50 85 100 119 126 126 130 131 130 129 130 129 129 129 129 130 130 128 127 126 127 127 126 124 121 119 118 119 118 116 114 112 110 108 106 105 104 103 106 109 107 105 113 115 121 117 115 111 105 102 107 118 120 115
20 34 18 25 342 68 145 167 241 225 265 159 249 271 273 290 285 281 279 70 9 69 104 121 123 116 84 156 42 8 349 111 93 106 104 108 101 108 118 125 119 106 58 7 32 80 111 121 126 129 129 129 129 128 130 129 128 129 131 129 128 129 129 131 132 130 126 123 121 120 120 119 119 118 115 113 111 109 109 110 109 110 111 113 108 113 123 117 115 114 112 111 109 106 108 121 117
162 97 269 92 281 58 241 213 246 183 268 150 230 244 263 261 275 340 289 99 204 99 75 129 153 90 233 356 112 353 37 58 102 106 101 94 99 100 106 112 107 102 101 79 26 34 122 123 129 131 129 129 130 130 129 128 129 130 128 128 128 130 132 133 133 130 127 125 123 123 122 123 122 120 118 117 116 115 113 113 113 110 108 104 101 99 103 106 108 109 113 117 119 121 127 133 140
6 82 304 69 14 14 351 248 255 234 272 301 278 251 259 267 282 264 246 46 91 104 138 160 125 90 211 84 61 57 63 92 75 80 90 97 97 91 71 80 99 104 100 109 106 31 91 127 125 128 128 129 130 130 130 130 130 130 129 131 131 132 133 133 132 130 128 127 127 127 127 124 122 120 119 119 118 117 116 115 112 110 108 107 111 112 112 112 113 117 121 122 126 133 140 157 164
16 101 265 142 139 278 302 280 224 249 248 260 261 273 258 236 247 244 196 88 133 127 269 351 86 110 131 99 97 45 90 89 94 81 85 109 122 132 128 122 113 117 119 116 113 109 170 133 131 129 128 128 129 129 130 130 130 130 131 130 132 133 133 132 129 127 128 128 128 128 129 126 123 120 118 115 115 114 115 115 114 115 114 116 116 117 119 118 119 122 123 125 132 138 135 146 111
341 339 175 66 20 245 249 269 269 303 291 301 285 266 261 236 217 233 115 117 125 125 122 98 64 114 108 77 56 45 44 91 96 103 107 115 107 109 114 118 126 125 123 116 112 118 174 150 135 126 124 123 122 122 124 127 128 128 128 129 133 135 134 131 130 130 128 130 130 130 128 126 126 125 121 120 119 119 118 117 118 119 122 122 119 120 121 121 123 124 127 131 127 121 116 119 92
19 11 45 112 204 181 243 219 290 285 291 284 286 277 298 168 120 82 80 107 181 145 154 180 153 120 81 118 82 58 85 87 104 110 102 104 105 106 114 121 131 128 124 116 138 138 160 147 135 126 120 120 121 124 126 127 128 129 130 134 135 136 135 135 132 131 132 132 131 128 129 129 130 129 128 126 126 124 124 124 123 123 123 125 123 126 126 125 127 129 131 130 125 122 138 138 102
153 219 104 104 233 158 244 268 261 278 294 288 262 300 334 67 107 141 131 114 162 187 246 188 137 115 112 126 120 98 78 91 104 111 113 118 118 112 111 123 126 126 121 109 137 143 137 137 139 128 129 127 125 126 127 129 130 131 134 137 139 139 139 137 137 137 137 134 132 131 129 128 128 130 132 132 131 131 130 130 128 127 129 129 130 130 134 136 134 135 135 130 130 138 138 150 144
159 182 117 257 252 235 263 254 274 312 291 268 289 291 335 67 162 164 87 54 63 111 48 122 102 96 86 110 105 111 116 109 115 110 113 111 112 115 119 131 138 136 140 143 154 175 138 139 138 133 128 124 124 123 127 130 132 133 135 139 141 140 138 138 137 139 138 136 135 131 128 130 131 131 133 132 131 133 132 132 133 133 133 134 137 139 143 144 143 140 138 136 134 137 160 158 55
202 198 97 153 282 345 251 215 247 298 283 279 260 8 357 11 347 16 91 100 19 108 107 55 156 100 205 154 185 165 142 131 113 113 110 104 101 107 125 126 112 112 123 150 152 159 136 137 129 123 122 121 120 125 131 136 134 137 139 142 141 140 136 137 137 136 138 134 133 132 132 129 127 121 119 120 128 133 139 136 138 139 138 141 144 147 149 148 145 143 144 143 146 151 181 339 352
193 98 107 190 259 220 274 241 221 34 274 278 288 25 57 356 1 57 13 107 175 114 125 149 269 197 166 174 154 136 138 125 118 113 111 110 108 100 100 109 124 128 140 158 136 126 130 123 124 123 121 121 124 128 131 135 138 140 140 141 140 137 137 136 137 135 136 135 135 134 131 129 126 121 121 121 132 134 133 132 146 145 145 148 150 152 154 152 151 151 153 150 151 156 178 318 331
140 116 268 235 276 205 258 165 126 288 288 314 327 0 65 5 311 80 33 93 89 355 35 12 20 91 150 126 127 129 129 128 122 113 112 116 118 110 108 108 113 117 141 151 140 138 135 131 128 119 119 122 124 128 129 135 146 143 143 143 142 140 136 140 142 141 137 136 131 129 115 105 109 108 111 116 125 112 131 146 151 150 150 151 156 159 156 157 155 153 151 153 155 151 136 327 325
96 196 149 247 223 240 225 147 349 297 322 307 317 320 84 53 341 329 49 57 90 59 50 44 51 61 94 110 114 124 132 131 130 121 123 122 119 116 114 121 127 135 148 134 142 134 135 134 130 124 122 125 127 125 131 138 143 139 137 141 139 142 143 143 137 133 136 116 128 125 119 118 114 119 139 136 131 132 137 156 155 155 154 156 156 156 159 159 160 155 157 162 158 145 148 13 336
141 195 146 237 205 247 29 159 292 327 291 319 273 320 34 179 200 303 96 103 83 63 39 77 84 80 89 103 119 127 135 134 132 128 130 130 134 133 135 138 138 144 149 149 153 147 145 137 135 132 133 135 129 128 133 132 128 134 132 131 142 148 155 140 129 130 101 114 117 127 117 116 131 134 138 143 149 139 143 158 158 157 156 155 154 157 162 161 155 159 167 170 169 160 72 353 333
228 160 240 248 215 251 270 227 256 246 253 310 320 320 9 270 320 301 105 123 113 126 129 60 110 117 112 115 116 126 130 120 117 125 129 137 143 142 140 144 150 155 145 152 147 141 139 136 140 140 143 146 139 138 133 131 134 131 134 135 139 145 118 118 109 117 121 128 133 132 134 132 125 175 169 162 155 132 144 155 160 155 154 154 154 148 163 167 158 162 179 186 171 113 171 268 308
267 138 211 235 220 247 266 228 240 267 269 277 227 324 8 331 319 104 186 85 254 179 169 152 150 135 132 134 134 134 122 116 118 128 132 134 133 125 137 141 140 132 142 137 135 141 142 143 147 151 148 150 142 145 144 141 134 128 129 139 145 138 121 111 113 111 112 104 126 131 130 121 119 86 74 79 101 127 102 97 102 94 107 118 129 109 137 153 145 146 202 156 151 210 240 262 267
22 212 218 229 257 252 253 255 261 251 272 293 272 66 290 302 12 349 335 139 212 197 207 138 141 142 142 143 132 122 116 116 125 131 137 143 140 136 121 100 93 111 136 147 142 143 155 157 155 156 152 154 149 147 149 154 146 141 142 154 148 145 130 123 117 123 107 104 119 128 115 120 121 92 110 154 139 110 111 99 100 108 109 120 132 129 132 122 138 159 174 203 234 239 258 260 246
245 278 272 247 240 233 263 249 229 232 282 282 338 248 257 54 311 311 95 193 226 242 131 137 139 136 127 121 126 120 117 123 129 139 141 134 135 140 134 130 131 137 143 156 153 156 164 165 158 155 155 144 139 147 148 152 152 155 152 160 157 168 145 139 138 126 112 119 129 138 125 134 133 130 164 172 131 119 126 117 106 116 122 132 138 137 147 152 155 174 188 213 224 239 256 262 251
201 251 254 267 234 232 246 253 219 240 213 223 217 72 187 14 336 312 44 324 110 112 122 119 118 115 118 114 104 114 119 110 89 57 47 153 155 150 142 135 134 104 105 154 165 168 170 167 156 156 146 141 145 153 159 164 154 153 163 167 173 189 160 144 124 135 132 127 141 144 140 146 150 155 191 174 132 115 129 126 125 123 129 141 134 137 148 168 161 160 192 221 227 236 244 248 256
212 256 248 252 255 243 245 226 242 259 254 243 233 228 256 185 197 102 65 102 108 113 117 117 113 106 102 103 110 113 112 115 115 104 62 3 54 94 92 102 102 93 130 175 161 167 172 161 155 154 148 151 154 155 166 165 156 155 159 155 177 200 173 153 141 152 158 150 151 157 149 150 155 166 188 167 121 133 135 133 140 151 145 151 134 146 154 163 175 186 200 212 225 255 283 297 278
224 227 245 257 251 248 246 241 236 235 250 235 233 236 254 251 121 58 125 102 108 111 112 118 115 112 113 118 124 129 128 118 115 119 120 118 126 110 105 117 122 139 180 168 83 53 356 167 166 161 158 160 158 162 168 159 163 157 153 161 179 190 198 144 137 157 183 165 159 166 165 157 165 175 190 148 140 150 148 143 145 164 151 164 151 159 165 158 184 188 204 220 218 230 241 251 268
232 280 248 239 251 248 260 247 282 285 248 212 215 248 265 271 143 103 309 130 122 116 119 122 122 120 117 117 120 128 129 137 141 132 133 167 161 136 135 131 148 150 128 207 143 121 51 291 173 162 160 162 162 168 168 165 157 153 153 159 155 172 181 133 138 154 171 171 164 154 156 166 167 182 172 149 140 149 150 149 170 172 164 175 168 175 153 170 182 190 202 214 221 223 249 279 299
303 254 281 270 257 222 224 278 283 325 304 188 195 248 228 329 116 164 156 169 136 126 127 126 126 124 120 122 127 138 133 141 139 139 153 164 178 161 142 154 154 160 158 218 168 144 141 230 189 166 163 163 169 173 162 153 155 156 154 142 147 165 155 145 144 157 161 168 163 148 160 156 153 178 166 150 137 151 155 161 172 176 179 176 170 157 159 164 190 205 203 213 227 173 199 272 274
278 287 307 285 341 331 314 257 255 156 269 270 266 344 317 334 228 163 148 155 141 125 127 129 127 122 121 121 125 134 138 142 142 148 169 177 179 177 143 183 156 162 193 166 161 143 171 203 174 166 163 166 172 170 165 159 161 160 149 151 161 163 163 151 149 159 155 160 169 159 151 131 120 130 125 131 136 159 159 157 167 190 177 166 162 157 152 189 199 215 231 206 97 116 141 319 326
310 337 202 341 354 317 264 258 260 267 243 144 98 289 267 262 114 152 146 147 139 125 133 139 134 131 133 137 138 137 137 142 157 154 167 177 176 167 149 180 156 157 168 185 156 175 198 187 151 155 163 168 169 168 149 158 164 153 160 160 162 161 168 153 154 155 152 155 161 152 150 145 148 152 142 106 115 143 151 168 179 181 161 138 110 126 175 212 223 204 210 145 167 127 124 257 42
305 273 37 321 17 280 239 198 253 296 209 177 125 229 272 275 131 161 157 152 146 139 146 147 141 142 146 146 145 148 160 163 154 161 177 183 176 182 163 162 176 167 152 154 175 178 168 153 145 151 161 157 164 166 158 158 157 165 156 158 150 149 145 145 145 147 141 150 149 160 155 153 148 154 148 139 110 128 142 160 163 199 175 136 134 103 90 287 206 194 148 144 116 49 25 21 22
301 20 318 330 212 265 284 259 214 219 286 141 155 240 247 244 165 161 158 156 139 140 154 152 148 147 147 144 144 152 162 167 156 162 176 180 183 177 163 172 184 178 151 139 130 137 138 140 142 141 143 145 158 163 161 155 166 165 158 145 136 139 134 133 143 143 133 142 164 167 164 153 156 149 141 140 148 162 169 142 167 177 170 152 144 113 63 26 301 154 176 149 111 36 61 32 31
344 140 264 287 303 272 344 274 204 211 219 153 178 221 323 303 186 165 160 159 148 141 155 158 152 149 148 150 149 149 146 166 164 176 184 186 190 184 164 148 190 166 132 125 127 128 128 133 134 137 139 139 140 145 147 151 153 154 151 130 151 143 138 139 146 132 129 144 186 181 165 162 164 149 156 156 157 175 156 123 140 145 132 133 118 120 103 47 74 111 48 16 134 135 95 73 46
309 350 237 215 237 289 287 282 254 230 181 239 214 196 235 227 167 152 162 160 152 150 158 157 152 149 152 149 151 156 165 168 179 181 190 192 197 204 123 143 196 140 133 129 132 132 132 133 134 130 127 129 132 135 139 140 140 139 133 137 138 118 119 132 153 150 153 169 185 193 172 170 182 174 166 173 171 162 140 148 116 127 126 117 110 78 113 136 85 112 106 35 93 122 100 106 103
244 320 332 315 261 217 244 269 274 170 202 199 200 201 255 74 149 162 169 169 157 156 154 151 150 150 153 158 160 167 170 177 186 185 179 176 182 97 111 130 226 142 139 131 126 125 125 129 128 125 121 123 122 124 120 102 91 82 92 112 101 81 65 50 61 70 289 98 232 227 158 190 205 152 161 187 175 146 137 152 119 129 134 128 121 73 326 90 94 89 122 84 56 75 116 132 150
228 225 203 205 277 289 242 259 252 154 179 194 158 187 209 243 149 193 179 181 155 133 139 147 151 152 159 164 166 173 183 187 183 176 157 161 155 138 141 181 190 141 135 128 125 126 124 123 119 117 121 126 124 119 116 105 99 111 96 85 82 77 75 77 47 18 9 184 279 228 198 192 186 169 184 192 187 130 115 141 149 144 128 122 125 140 200 191 130 109 101 100 77 57 48 93 101
245 198 171 249 284 305 288 283 245 150 136 176 176 169 46 326 237 139 70 111 125 137 145 146 153 158 163 165 170 181 190 191 178 170 157 166 162 156 174 165 163 139 132 128 126 128 133 137 132 130 135 132 129 131 123 124 119 107 90 98 107 105 109 103 95 121 116 136 181 233 248 247 221 184 178 173 170 182 166 169 138 126 125 126 131 145 153 139 131 127 105 75 93 67 15 18 38
187 84 27 310 340 320 307 321 18 36 110 337 57 112 158 203 252 149 143 142 162 157 152 156 165 172 170 167 168 174 191 118 147 156 172 173 161 165 174 154 160 141 144 133 132 136 136 136 134 133 132 131 134 142 138 119 135 141 135 139 125 120 116 111 106 79 91 100 110 161 219 240 250 250 201 180 169 173 152 156 149 154 148 150 150 146 155 139 130 125 129 75 53 113 97 15 325
333 44 239 329 311 252 293 336 30 0 85 188 218 136 196 240 264 132 156 164 184 173 169 172 164 170 171 172 169 162 159 164 170 179 179 163 160 168 165 155 167 147 145 135 133 130 132 133 134 134 139 143 152 140 123 126 104 118 123 145 132 106 44 110 115 106 71 66 47 64 76 66 269 294 266 240 204 146 143 151 168 160 152 152 140 145 139 134 137 134 130 132 103 65 103 116 96
276 320 47 253 256 26 312 308 345 14 95 325 343 65 276 305 291 136 169 153 181 188 173 167 166 167 175 182 173 159 160 161 176 181 181 160 165 168 160 159 158 144 137 134 138 137 139 138 140 142 148 148 148 128 102 90 102 97 99 119 98 106 135 101 77 61 48 43 30 15 40 62 76 62 54 96 151 178 156 144 139 145 159 158 144 128 135 142 131 138 155 146 128 111 94 358 46
304 190 183 147 226 245 192 277 334 345 355 76 50 29 349 1 21 12 71 186 154 181 161 173 198 182 180 170 166 162 165 166 165 171 180 160 166 172 166 159 150 150 150 150 150 146 148 148 151 153 153 142 131 118 117 118 108 98 98 86 94 85 65 65 73 46 32 49 47 35 9 27 35 34 42 59 70 76 94 151 140 125 109 120 125 137 147 145 150 164 165 148 163 140 138 96 20
316 259 197 216 207 211 292 313 36 25 342 336 106 25 311 305 334 264 284 121 188 184 169 189 185 177 151 177 182 172 153 174 166 172 180 172 158 154 161 160 157 155 156 159 151 147 141 147 152 150 123 123 129 137 140 132 129 131 127 121 114 108 107 109 121 130 93 89 94 322 17 32 38 38 29 39 47 61 65 77 79 78 92 107 116 114 115 107 94 103 130 139 121 108 138 128 143
102 276 179 190 178 197 236 293 54 20 57 288 77 142 265 325 339 296 297 186 190 186 198 181 171 183 184 190 178 171 164 178 193 171 166 147 154 156 167 168 163 156 165 154 152 150 145 149 161 147 140 140 137 151 147 130 128 134 137 138 138 141 138 167 138 136 136 149 112 71 37 21 40 59 35 37 40 54 70 75 83 75 71 78 81 77 64 67 63 79 103 108 132 122 113 123 152
231 239 176 155 122 119 137 118 130 230 245 311 40 104 159 316 294 262 21 99 213 206 221 188 183 184 185 186 184 172 167 172 172 168 157 157 163 167 173 172 169 166 161 158 157 153 154 159 161 149 147 148 156 156 145 141 135 132 128 129 135 140 146 152 149 155 137 128 96 76 55 33 32 52 61 38 41 58 71 67 71 69 69 66 72 67 71 64 66 42 60 85 84 79 112 131 130
215 257 205 170 150 163 145 102 93 143 128 292 318 359 61 279 270 304 149 121 239 225 187 191 189 182 181 181 185 168 163 160 161 166 175 176 174 176 166 176 174 159 162 165 165 163 162 164 162 150 152 156 164 160 146 144 138 140 136 135 129 141 142 148 148 138 128 116 110 92 82 70 55 43 59 64 44 61 68 83 82 76 72 70 75 74 64 65 71 67 49 47 57 52 67 109 128
279 213 211 162 108 104 119 109 86 356 64 291 268 270 157 287 279 325 338 73 205 162 196 177 168 169 162 163 170 154 150 163 175 178 174 177 178 176 180 161 160 173 169 160 156 159 166 164 164 158 161 165 165 163 150 148 141 136 134 141 139 145 141 141 136 136 132 135 131 123 102 84 69 58 48 60 69 62 74 76 81 84 87 81 78 82 80 73 66 66 65 71 69 70 48 77 97
224 41 41 4 29 10 16 69 95 65 52 256 235 328 131 288 274 257 357 274 188 135 92 2 118 140 150 149 150 156 158 167 178 183 181 181 184 174 153 165 170 155 147 153 159 165 166 167 169 167 166 164 162 165 157 155 148 143 140 144 143 149 156 151 139 136 136 132 133 121 110 104 86 78 63 51 68 67 68 70 82 82 74 74 72 71 76 87 85 88 87 77 70 80 74 75 67
132 61 104 43 344 9 28 350 49 110 279 259 276 153 109 137 293 303 254 293 174 144 126 109 118 135 142 134 138 147 147 165 166 153 131 122 125 128 136 159 167 166 150 155 155 160 167 169 166 164 165 166 167 163 161 153 143 133 134 139 142 156 162 161 155 157 160 153 152 146 140 112 100 91 89 87 64 67 79 77 80 75 73 77 79 90 86 81 76 73 65 70 72 75 83 79 73
78 74 47 91 283 30 343 5 349 197 175 246 268 93 29 214 214 247 312 322 349 275 146 139 130 128 119 121 127 134 131 123 124 128 140 150 164 165 168 166 161 169 175 169 169 166 165 161 161 161 170 166 157 150 166 157 138 130 132 135 140 156 172 164 159 156 160 154 160 153 146 136 132 113 137 116 122 107 97 82 81 85 82 86 95 87 85 84 82 77 77 68 62 56 57 74 73
132 159 132 80 73 56 227 273 223 328 292 261 215 77 200 244 300 249 269 314 229 110 59 87 115 117 113 112 107 103 102 107 109 116 123 148 172 168 169 172 179 180 176 172 175 174 170 164 163 158 137 117 101 88 198 142 110 120 136 139 147 155 166 171 174 160 165 159 164 165 161 156 154 159 165 162 168 133 109 119 109 108 113 110 104 104 99 94 92 96 95 90 86 99 84 79 87
203 157 141 173 141 160 197 190 190 204 205 275 306 64 236 87 213 311 37 67 77 69 83 83 70 81 93 90 88 89 90 85 94 91 96 105 138 172 175 181 181 169 163 169 172 180 149 88 50 38 42 58 61 65 36 130 121 129 135 133 144 151 164 169 195 182 159 158 168 163 168 159 157 173 169 177 157 134 140 130 128 122 117 110 113 110 109 105 104 96 98 104 95 90 84 86 73
284 119 83 87 218 143 168 201 150 210 178 356 329 202 189 136 254 328 20 91 83 91 87 76 63 56 76 79 77 80 80 84 84 88 77 67 79 80 171 180 169 158 156 151 139 108 88 88 73 50 56 98 138 161 166 153 127 118 136 140 154 161 172 163 171 198 179 163 166 167 176 179 176 170 178 155 166 145 147 135 125 128 121 112 119 130 129 122 119 107 95 94 92 87 88 80 82
260 60 77 223 180 119 95 46 293 100 52 254 200 349 320 301 5 60 49 91 109 104 114 110 109 98 74 81 83 76 77 73 57 69 57 50 49 52 71 163 152 147 151 155 148 145 147 145 149 153 157 164 167 161 158 162 139 130 142 149 159 165 172 173 170 186 185 176 167 172 173 194 184 177 173 163 158 155 146 142 139 143 129 122 116 126 125 125 117 111 116 113 115 86 90 99 88
69 88 236 81 80 111 123 177 342 63 138 254 333 188 289 101 247 343 22 26 72 138 142 129 129 129 118 123 117 111 105 109 113 98 86 65 61 53 49 67 132 152 149 144 146 157 159 154 164 151 151 171 188 177 164 174 152 134 140 158 175 179 179 181 172 178 182 167 173 174 163 160 197 191 171 169 158 156 151 143 139 145 141 115 128 135 131 131 115 110 122 119 132 114 95 76 82
154 194 200 92 271 304 318 91 268 92 258 261 332 158 78 124 253 334 352 173 25 354 29 122 128 123 120 119 105 98 94 83 72 70 64 55 51 52 60 69 75 103 138 152 157 163 160 168 171 148 157 173 178 170 50 15 101 142 151 171 176 175 185 183 180 178 173 170 172 176 177 184 186 193 170 163 161 158 155 155 150 155 157 148 142 149 139 135 130 127 135 130 123 105 105 97 54
37 97 23 95 96 165 102 199 176 119 228 85 285 45 176 247 218 268 274 240 141 129 68 3 76 125 126 120 108 96 89 91 84 77 75 71 61 55 62 71 74 83 96 121 145 147 159 164 167 140 133 158 126 80 76 90 309 220 167 173 174 170 175 179 194 171 179 181 176 177 176 169 188 187 184 169 166 163 164 163 167 163 165 163 145 161 143 140 136 145 151 141 145 117 121 132 119
336 20 348 26 24 213 109 46 95 158 170 164 162 37 282 273 231 305 302 230 170 129 118 123 122 100 110 119 119 112 110 105 103 98 94 89 81 72 68 72 76 71 73 87 120 158 167 162 168 173 169 153 138 135 136 170 184 198 173 171 174 167 169 191 196 179 180 187 176 175 174 178 166 186 177 175 171 173 171 172 175 176 170 172 160 164 160 144 143 155 167 159 153 141 144 156 144
239 197 209 160 115 82 138 224 338 99 90 209 106 225 262 272 241 237 242 166 122 145 138 142 144 143 132 130 116 117 110 109 113 115 106 98 91 84 79 73 78 81 77 77 84 125 156 166 172 167 137 145 145 166 170 107 3 85 155 187 178 181 186 191 197 181 175 177 168 169 170 162 177 185 180 179 181 180 176 175 179 185 187 182 176 171 173 162 165 167 183 181 162 156 164 169 155